Location: Squirrel Cove
(50.1074°N, 124.9139°W)
Time: 13:06:05
(UTC-07:00)

PCSat - Pass Details

Date: 26 May 2022
Orbit: 784 x 795 km, 67.1° (Epoch: 26 June)

Event Time Altitude Azimuth Distance (km) Brightness Sun altitude
Rises 23:51:33 0° 320° (NW) 3,305 14.2 -16.1°
Reaches altitude 10° 23:54:50 10° 340° (NNW) 2,374 13.4 -16.3°
Maximum altitude 23:58:26 18° 21° (NNE) 1,900 12.2 -16.5°
Drops below altitude 10° 00:02:01 10° 63° (ENE) 2,370 12.1 -16.7°
Sets 00:05:16 0° 83° (E) 3,297 12.7 -16.8°
